Wind_Speed
37 36 35 34 33 33 32 31 31 32 31 31 32 31 31 31 31 32 31 31 31 31 31 31 32 31 31 31 32 32 32 33 32 32 33 33 34 33 33 34 34 34 34
39 39 38 37 36 35 34 33 33 33 33 33 33 33 33 33 33 33 33 33 33 33 33 33 33 33 33 33 34 34 34 35 35 35 35 35 36 36 36 36 37 37 36
40 40 40 40 39 37 37 36 35 35 35 34 34 34 35 35 35 35 35 35 35 35 35 35 35 35 35 35 35 36 36 36 37 37 37 38 38 38 38 38 38 38 38
43 43 42 41 41 40 40 39 38 38 37 37 36 36 36 36 36 36 36 37 37 37 36 36 36 36 36 37 37 38 38 39 39 39 40 40 40 40 40 40 40 40 39
45 44 44 44 43 42 42 41 40 39 39 38 38 38 38 37 37 37 37 38 38 37 38 38 38 37 37 38 39 40 40 41 41 42 43 43 43 43 42 41 42 42 42
46 45 46 46 45 44 43 42 42 41 41 40 40 40 39 39 39 38 38 38 38 38 39 39 39 39 39 40 41 42 43 43 43 43 44 44 44 44 43 43 43 43 43
45 44 45 45 44 44 44 44 43 42 41 41 41 41 40 40 40 40 39 39 39 40 39 39 40 40 41 42 42 43 44 44 44 44 44 44 44 44 43 43 44 43 44
44 45 46 45 45 44 44 43 43 42 42 41 41 42 41 41 42 41 41 41 41 41 40 40 41 42 42 42 43 43 44 44 45 44 44 45 45 45 45 45 45 45 45
44 44 45 45 45 45 44 44 43 43 42 42 42 42 42 41 41 41 41 42 43 42 42 42 42 43 43 44 44 44 45 45 45 45 45 45 45 45 45 45 45 45 44
43 43 43 43 43 43 43 43 43 43 43 43 43 43 44 43 43 42 42 42 41 41 42 42 42 43 44 44 43 43 44 45 46 46 46 46 46 46 46 46 46 45 44
42 41 41 41 41 41 42 43 44 44 45 45 44 44 44 43 44 43 42 42 43 42 42 42 42 42 43 43 44 44 44 46 47 47 46 46 46 47 47 47 46 45 45
40 39 39 39 39 39 40 41 42 43 44 44 45 44 44 43 43 42 42 42 42 41 41 41 41 42 41 41 42 43 45 46 47 47 47 48 48 48 48 47 47 46 46
38 38 38 39 38 38 38 39 40 41 42 42 43 43 43 43 42 42 42 41 41 40 41 42 42 42 42 42 44 45 46 46 47 48 48 48 49 49 48 49 48 47 46
36 37 37 37 38 38 38 38 40 39 39 39 39 41 42 42 42 42 41 41 42 42 42 43 44 44 44 45 45 46 47 47 48 49 49 49 48 48 48 49 49 48 46
33 34 34 36 36 37 38 38 38 38 37 36 37 38 39 40 39 40 41 42 42 42 42 43 44 45 46 46 47 47 48 49 49 50 50 49 48 48 48 48 49 49 46
31 31 31 32 33 34 35 36 36 36 36 36 36 37 37 38 39 39 40 41 41 42 43 44 44 45 47 47 48 48 48 49 50 51 51 50 49 47 48 48 47 47 44
28 28 28 29 30 31 32 32 32 34 35 35 34 35 36 37 38 38 39 39 41 43 44 43 45 46 46 47 48 48 49 49 50 51 50 49 48 48 47 47 47 45 43
26 27 27 27 28 28 29 30 31 31 31 32 34 34 35 36 37 38 39 40 42 44 44 43 44 45 46 47 48 48 48 47 49 49 48 48 46 46 46 45 44 42 40
24 25 26 26 26 27 28 28 29 30 31 33 33 34 34 35 37 38 39 41 42 43 44 44 44 45 46 48 47 47 47 48 47 46 46 46 46 44 44 40 39 37 37
22 23 24 25 26 26 27 28 28 30 31 32 33 33 34 35 37 39 41 42 42 43 43 44 44 45 45 46 46 45 45 45 45 45 45 44 44 41 39 37 35 35 34
21 21 23 24 25 25 26 28 29 30 31 31 31 32 33 35 37 39 40 42 42 43 43 44 44 44 44 43 44 44 43 42 43 43 43 42 41 39 36 34 33 32 32
18 19 21 21 22 23 24 25 26 28 28 29 30 31 32 34 35 37 39 40 41 42 42 43 43 44 43 42 42 42 42 42 41 41 41 40 38 36 34 32 33 33 32
17 18 18 17 18 19 21 22 23 25 26 27 28 29 31 32 34 35 36 38 39 40 41 42 43 42 42 41 41 41 41 41 40 38 38 37 36 33 31 31 30 29 29
18 19 19 19 19 20 22 23 24 26 27 28 29 30 32 33 35 36 37 37 37 38 39 39 39 40 41 41 40 39 38 37 37 37 37 36 34 32 30 28 28 27 26
18 19 19 20 21 22 23 25 26 27 29 29 30 31 33 34 35 36 37 37 37 38 38 38 37 37 37 37 37 36 36 36 36 35 34 33 31 30 28 26 26 26 26
19 19 20 21 22 23 25 26 27 28 29 30 31 32 34 35 36 37 37 37 37 37 38 37 38 38 37 37 37 36 36 36 36 34 32 32 30 29 27 26 26 26 26
Wind_Direction
256 257 258 260 260 260 261 262 265 267 269 270 270 271 272 273 273 273 275 276 278 281 282 283 284 286 286 287 287 287 287 288 289 290 291 292 292 293 293 294 294 294 295
255 256 257 259 259 260 260 262 264 267 268 270 271 271 272 273 274 274 275 276 278 279 280 282 284 285 285 285 287 287 287 287 287 288 290 290 291 291 291 292 292 292 292
253 255 256 257 258 259 260 262 264 266 267 270 271 272 272 273 274 274 276 277 278 278 279 280 282 284 284 285 285 286 286 287 287 287 288 289 290 290 290 290 291 290 290
252 253 255 257 257 259 260 261 262 264 266 268 269 271 272 273 273 274 276 277 277 277 278 280 282 283 283 283 284 285 286 286 287 287 288 289 290 290 290 289 289 289 289
252 253 255 256 257 258 259 261 262 264 266 267 269 270 271 273 273 274 274 275 276 277 277 279 281 282 283 283 284 284 285 286 287 287 287 288 289 289 288 288 288 288 288
252 253 255 256 257 258 258 260 262 263 265 267 268 268 269 271 273 273 274 274 274 276 277 278 280 281 283 284 284 285 286 287 287 288 288 288 289 289 288 288 287 287 286
252 253 255 256 257 257 258 259 261 262 264 266 268 268 268 270 271 272 273 274 275 275 277 279 280 282 283 284 284 284 285 286 287 288 288 288 289 289 289 289 287 287 286
252 254 255 255 256 257 258 259 260 261 263 265 267 268 268 269 270 271 273 275 275 275 276 278 280 282 283 284 283 283 284 285 287 288 288 288 288 289 289 289 288 286 286
251 253 255 254 254 256 256 257 259 260 261 263 266 268 268 268 269 272 273 275 274 274 276 278 279 281 283 284 284 284 284 285 287 288 288 288 287 288 289 290 289 288 286
253 254 254 253 254 255 256 256 258 259 261 263 264 267 267 268 270 271 272 274 275 276 277 278 279 282 282 283 283 285 286 286 286 287 288 287 287 287 288 288 288 287 285
254 254 254 253 254 255 256 257 258 259 261 262 263 266 267 268 269 270 271 273 275 276 276 277 279 281 282 282 283 284 286 287 288 288 287 288 288 287 287 287 288 287 286
253 254 255 255 256 256 257 258 259 260 260 262 264 266 267 268 271 272 273 274 274 275 276 277 279 282 283 284 285 286 287 288 289 289 289 288 288 287 286 286 285 285 286
253 254 254 256 257 257 257 259 260 261 263 264 265 267 267 268 270 272 274 275 275 274 276 278 279 281 283 285 286 288 289 289 289 289 290 290 289 287 285 285 284 284 284
253 255 255 255 255 255 257 259 259 261 263 265 267 268 269 269 270 271 274 274 274 275 276 277 279 280 282 284 285 287 289 289 289 290 291 291 290 288 287 285 283 283 282
254 256 256 255 256 256 257 259 261 262 264 266 268 270 270 270 271 273 274 275 277 278 278 278 279 281 282 284 285 287 287 288 289 290 290 290 290 289 287 285 283 282 280
253 256 255 255 255 257 259 260 261 262 266 268 268 269 270 271 272 274 276 277 278 280 281 280 280 282 284 284 285 287 288 288 289 291 290 289 288 288 286 285 284 281 278
255 255 256 256 257 260 261 261 261 265 267 268 269 271 273 274 273 276 278 279 281 282 284 282 280 282 284 285 287 288 289 289 290 291 291 289 289 287 286 285 283 280 277
255 255 255 258 258 259 259 261 263 267 269 272 272 273 274 275 276 278 280 281 283 283 284 284 283 284 285 286 288 289 289 290 291 291 290 290 290 288 286 285 282 279 274
256 256 256 259 260 261 262 265 267 269 271 274 275 276 276 277 278 280 282 284 285 285 285 286 286 287 287 287 288 288 289 289 291 291 291 290 289 288 287 283 280 278 273
257 255 257 259 262 263 265 269 272 273 275 278 279 278 278 280 281 283 283 284 285 285 285 287 288 288 289 289 289 289 289 289 291 292 291 291 291 290 286 281 279 276 272
259 258 259 262 264 267 269 273 275 277 278 280 280 281 282 282 284 285 285 284 285 286 287 288 289 289 289 290 291 290 290 292 292 292 293 292 291 290 286 280 278 274 271
261 260 260 263 266 269 271 275 278 279 281 283 285 285 285 285 287 288 288 287 287 288 289 290 289 290 290 291 292 292 291 292 292 293 294 294 291 287 284 280 276 272 269
260 259 261 266 271 273 276 280 283 284 286 287 289 289 290 291 293 292 291 291 292 291 291 292 291 292 291 292 292 292 292 292 292 293 293 292 290 286 283 281 277 272 268
261 263 266 270 275 280 283 286 289 290 291 292 291 292 293 294 294 295 295 295 296 296 295 295 294 294 293 292 293 292 291 293 294 294 292 290 288 285 282 278 272 266 262
265 267 272 277 281 284 286 288 290 293 294 294 293 294 296 296 297 297 297 297 297 297 296 296 295 295 295 294 294 293 292 292 293 293 291 289 286 284 278 272 267 265 261
267 271 275 279 282 285 287 290 292 294 295 297 297 298 298 297 297 297 297 297 298 296 295 295 295 295 295 294 294 294 293 292 291 290 290 288 285 282 276 270 264 263 260
Height
5819 5820 5822 5823 5824 5825 5826 5827 5827 5827 5828 5828 5828 5828 5828 5827 5827 5827 5826 5825 5825 5824 5822 5821 5820 5819 5817 5816 5814 5813 5811 5809 5807 5806 5804 5802 5800 5798 5796 5794 5792 5789 5787
5811 5813 5814 5816 5817 5818 5819 5820 5820 5821 5821 5821 5821 5821 5821 5821 5821 5820 5819 5819 5818 5817 5816 5815 5813 5812 5811 5809 5808 5806 5804 5802 5800 5799 5797 5795 5792 5790 5788 5786 5783 5781 5779
5802 5804 5806 5808 5809 5810 5811 5812 5813 5814 5814 5814 5814 5814 5814 5813 5813 5813 5813 5812 5811 5810 5809 5808 5806 5805 5803 5802 5800 5799 5797 5795 5793 5791 5788 5786 5784 5782 5779 5777 5774 5772 5770
5793 5795 5797 5799 5801 5802 5803 5804 5805 5806 5806 5806 5807 5806 5806 5806 5806 5806 5805 5805 5804 5803 5801 5800 5799 5797 5796 5794 5792 5790 5788 5786 5784 5782 5780 5777 5774 5772 5770 5767 5765 5763 5761
5783 5786 5788 5790 5791 5793 5794 5795 5796 5797 5798 5798 5799 5799 5798 5798 5798 5798 5798 5797 5796 5795 5794 5792 5791 5789 5787 5785 5784 5782 5779 5777 5774 5772 5770 5767 5764 5762 5759 5757 5754 5752 5750
5773 5775 5778 5780 5781 5784 5785 5786 5787 5788 5789 5790 5790 5790 5790 5790 5790 5789 5789 5788 5787 5786 5785 5784 5782 5780 5778 5776 5774 5772 5769 5767 5764 5762 5759 5756 5753 5751 5748 5746 5743 5741 5738
5762 5765 5768 5770 5772 5774 5776 5777 5778 5779 5780 5781 5781 5781 5782 5781 5781 5781 5780 5779 5779 5777 5776 5774 5773 5771 5769 5767 5764 5762 5759 5756 5754 5751 5748 5745 5742 5740 5737 5734 5731 5728 5726
5752 5755 5757 5760 5762 5764 5765 5767 5769 5770 5771 5771 5772 5772 5772 5773 5772 5772 5771 5771 5769 5768 5766 5765 5763 5761 5759 5756 5754 5751 5749 5746 5743 5740 5737 5734 5731 5728 5725 5722 5718 5716 5713
5743 5745 5747 5749 5751 5754 5756 5757 5759 5760 5761 5762 5762 5763 5763 5763 5763 5763 5762 5761 5759 5758 5757 5755 5753 5751 5749 5746 5744 5741 5738 5735 5732 5729 5726 5723 5719 5716 5713 5709 5706 5703 5701
5733 5735 5737 5739 5742 5744 5745 5747 5749 5750 5751 5752 5752 5752 5753 5752 5753 5753 5753 5751 5749 5748 5747 5745 5743 5741 5738 5736 5733 5730 5727 5724 5721 5718 5714 5711 5707 5704 5701 5697 5694 5691 5688
5723 5725 5727 5730 5732 5734 5736 5737 5739 5740 5741 5742 5743 5743 5742 5742 5741 5741 5742 5741 5740 5738 5737 5735 5732 5730 5728 5725 5722 5720 5716 5713 5709 5706 5702 5699 5695 5692 5688 5685 5682 5678 5676
5714 5716 5718 5720 5722 5724 5726 5728 5729 5730 5731 5732 5732 5732 5732 5732 5731 5730 5729 5730 5729 5728 5726 5724 5722 5720 5717 5714 5711 5708 5705 5701 5697 5694 5690 5687 5683 5679 5675 5672 5668 5665 5662
5705 5707 5709 5711 5713 5715 5717 5718 5719 5720 5721 5722 5722 5722 5722 5721 5721 5720 5719 5718 5718 5717 5715 5713 5711 5709 5706 5703 5700 5696 5693 5688 5685 5681 5678 5674 5670 5666 5662 5658 5655 5652 5649
5697 5699 5700 5702 5704 5706 5707 5708 5710 5711 5711 5711 5712 5712 5712 5711 5710 5709 5708 5707 5706 5706 5704 5703 5700 5698 5694 5691 5688 5684 5680 5676 5673 5669 5665 5660 5656 5652 5648 5645 5641 5639 5636
5688 5690 5692 5694 5695 5697 5698 5699 5700 5701 5702 5702 5702 5702 5701 5701 5700 5699 5697 5696 5694 5693 5693 5692 5689 5686 5682 5679 5675 5671 5668 5664 5660 5656 5651 5647 5642 5638 5634 5631 5627 5625 5623
5681 5682 5684 5685 5687 5689 5690 5691 5692 5692 5693 5693 5692 5692 5691 5691 5690 5688 5686 5685 5682 5681 5680 5680 5677 5673 5669 5666 5662 5658 5654 5650 5646 5642 5637 5633 5628 5624 5620 5617 5613 5611 5609
5674 5675 5677 5678 5679 5680 5681 5682 5683 5683 5683 5683 5683 5682 5682 5681 5680 5678 5676 5674 5672 5669 5668 5667 5664 5661 5656 5653 5649 5644 5640 5636 5632 5627 5623 5618 5614 5610 5606 5602 5599 5597 5596
5667 5669 5670 5671 5672 5673 5674 5674 5675 5674 5674 5674 5674 5673 5672 5671 5669 5668 5666 5663 5661 5658 5656 5654 5651 5648 5644 5640 5635 5631 5626 5622 5618 5613 5609 5604 5600 5595 5592 5589 5586 5584 5583
5661 5662 5663 5665 5665 5666 5666 5667 5667 5666 5666 5665 5664 5663 5662 5661 5659 5657 5655 5652 5649 5646 5643 5641 5638 5635 5631 5626 5621 5617 5613 5608 5604 5599 5594 5590 5586 5582 5578 5575 5574 5572 5572
5655 5656 5657 5658 5659 5659 5659 5659 5659 5658 5657 5656 5655 5653 5652 5650 5648 5646 5643 5641 5638 5634 5631 5628 5625 5622 5618 5613 5608 5605 5600 5596 5591 5586 5581 5577 5573 5569 5566 5564 5563 5562 5562
5649 5650 5650 5651 5652 5652 5652 5652 5651 5650 5648 5646 5645 5643 5641 5639 5637 5634 5632 5629 5626 5622 5619 5616 5613 5609 5605 5601 5596 5593 5588 5584 5579 5574 5570 5566 5561 5558 5555 5553 5552 5552 5552
5644 5644 5645 5645 5645 5645 5645 5644 5643 5641 5639 5638 5635 5633 5631 5629 5626 5623 5620 5617 5614 5611 5607 5604 5600 5597 5593 5589 5584 5580 5576 5573 5570 5566 5560 5556 5551 5548 5546 5544 5543 5542 5542
5638 5638 5638 5639 5639 5638 5637 5636 5635 5633 5631 5629 5627 5624 5622 5619 5616 5613 5609 5606 5602 5598 5595 5592 5588 5585 5581 5577 5573 5569 5565 5561 5558 5554 5549 5546 5542 5539 5537 5534 5533 5532 5533
5633 5633 5632 5632 5632 5631 5630 5629 5627 5625 5622 5620 5618 5616 5613 5610 5606 5603 5599 5596 5592 5588 5584 5579 5576 5573 5569 5565 5561 5558 5554 5550 5547 5543 5539 5536 5533 5530 5528 5526 5525 5524 5525
5627 5626 5626 5626 5625 5624 5623 5621 5619 5616 5614 5611 5609 5606 5603 5600 5597 5593 5590 5586 5582 5578 5573 5569 5565 5562 5557 5554 5550 5546 5543 5540 5537 5534 5529 5526 5524 5522 5520 5519 5518 5517 5518
5620 5620 5620 5619 5618 5617 5615 5613 5611 5608 5606 5603 5600 5597 5594 5590 5587 5583 5579 5576 5572 5568 5564 5559 5556 5552 5548 5544 5540 5536 5533 5529 5526 5524 5521 5518 5516 5513 5513 5512 5511 5511 5511